Location: Vancouver
(49.2500°N, 123.1330°W)
Time: 15:12:09
(UTC-07:00)

Iridium 21 - Visible Passes

Search period start: 28 September 2016 00:00
Search period end: 08 October 2016 00:00
Orbit: 776 x 779 km, 86.4° (Epoch: 28 September)

Date Brightness Start Highest point End Pass type
(mag) Time Alt. Az. Time Alt. Az. Time Alt. Az.
28 Sep 7.8 23:23:24 19° N 23:23:24 19° N 23:24:50 10° N visible
29 Sep 7.7 22:49:56 18° N 22:49:56 18° N 22:51:15 10° N visible
30 Sep 8.4 00:30:25 12° NNW 00:30:25 12° NNW 00:31:02 10° NNW visible
30 Sep 7.8 22:16:29 15° NNE 22:16:29 15° NNE 22:17:29 10° NNE visible
30 Sep 8.2 23:56:57 16° NNW 23:56:57 16° NNW 23:58:07 10° NNW visible
01 Oct 7.9 21:43:01 12° NNE 21:43:01 12° NNE 21:43:26 10° NNE visible
01 Oct 7.9 23:23:29 18° N 23:23:29 18° N 23:24:51 10° N visible
02 Oct 7.8 22:50:02 18° N 22:50:02 18° N 22:51:23 10° N visible
03 Oct 7.7 22:16:33 17° NNE 22:16:33 17° NNE 22:17:43 10° NNE visible
03 Oct 8.3 23:57:01 13° NNW 23:57:01 13° NNW 23:57:52 10° NNW visible
04 Oct 7.8 21:43:05 14° NNE 21:43:05 14° NNE 21:43:51 10° NNE visible
04 Oct 8.1 23:23:33 17° NNW 23:23:33 17° NNW 23:24:47 10° N visible
05 Oct 7.9 21:09:36 10° NNE 21:09:36 10° NNE 21:09:39 10° NNE visible
05 Oct 7.8 22:50:04 18° N 22:50:04 18° N 22:51:26 10° N visible
06 Oct 7.7 22:16:34 18° N 22:16:34 18° N 22:17:53 10° N visible
06 Oct 8.5 23:57:02 11° NNW 23:57:02 11° NNW 23:57:27 10° NNW visible
07 Oct 7.7 21:43:05 16° NNE 21:43:05 16° NNE 21:44:09 10° NNE visible
07 Oct 8.2 23:23:33 15° NNW 23:23:33 15° NNW 23:24:37 10° NNW visible
